If you wish to contribute or participate in the discussions about articles you are invited to join SKYbrary as a registered user

 Actions

Iqaluit

From SKYbrary Wiki

CYFB
Airport
ICAO: CYFB
Summary
Name Iqaluit
Region North America
Territory Canada CA.gif
Location Iqaluit, Nunavut
Serving
Coordinates 63° 45' 15.54" N, 68° 33' 1.35" W
Runways
Designator Length Width Surface ROPS
17/35 2623 m8,605.643 ft
61 m200.131 ft
ASP yes/yes


METAR
Observation CYFB 271300Z 36007KT 30SM OVC015 M01/M05 A2991 RMK SC8 SLP134
Station Iqaluit, N. W. T.
Date/Time 27 September 2020 13:00:00
Wind direction 360°
Wind speed 07 kts
Lowest cloud amount overcast
Temperature
Dew point
Humidity 74%
QNH hPa
Weather condition n/a

CFIT
Tag(s) Altimeter Temperature Error Correction
WX
Tag(s) Low Level Turbulence

Iqaluit Airport

ICAO: CYFB IATA: YFB

Description

Airport serving Iqaluit, Nunavut.

Climatology

Tundra climate (Köppen climate classification ET) - warmest month has an average temperature of 0 - 10 degrees C.

Maps

Terrain

Loading map...

Airport Layout

Loading map...


Accidents & Serious Incidents at or in vicinity of CYFB

None on SKYbrary